[[{"header":{"parameterUnit":"m.s-1","parameterCategory":2,"la1":30.2991,"la2":30.254,"lo1":-89.0895,"lo2":-89.0444,"dy":0.0017,"dx":0.0017,"nx":28,"ny":28,"refTime":"2024-05-08T03:00:00:Z","depth":"0","parameterNumber":2,"parameterNumberName":"U-component_of_CURRENTS"},"data":[0,0,0,0,0,0,0,0,0,0,0,0,0,0,0,0,0,0,0,0,0,0,0,0,0,0,0,0,0,0,0,0,0,0,0,0,0,0,0,0,0,0,0,0,0,0,0,0,0,0,0,0,0,0,0,0,0,0,0.2329,0.2329,0,0.2385,0.2385,0.2386,0.2393,0.2393,0.2393,0.2393,0.2393,0.2393,0.2393,0,0,0,0,0,0,0,0,0,0,0,0,0,0.2214,0.2216,0.2328,0.2329,0.233,0.2385,0.2385,0.2386,0.2393,0.2393,0.2393,0.2392,0.2393,0.2393,0.2393,0,0,0,0,0,0,0,0,0,0,0,0,0,0.2263,0.2216,0.2328,0.2343,0.2345,0.2385,0.2385,0.2386,0.2393,0.2393,0.2393,0.2392,0.2393,0.2393,0.2393,0.2403,0,0,0.2394,0.2395,0,0,0,0,0,0,0,0,0.226,0.2267,0.234,0.2342,0.2345,0.2384,0.2345,0.239,0.2393,0.2372,0.2392,0.2392,0.2387,0.2388,0.2396,0.2403,0.2403,0.2394,0.2395,0.2395,0.2395,0,0,0,0,0,0,0,0.2257,0.2265,0.2348,0.2341,0.2344,0.2342,0.2349,0.2354,0.2377,0.2374,0.2375,0.2386,0.2387,0.2395,0.2396,0.2403,0.2394,0.2395,0.2395,0.2395,0.2398,0.2398,0,0,0,0,0,0,0.2258,0.2262,0.2346,0.235,0.2304,0.2345,0.2352,0.2369,0.2379,0.2381,0.2387,0.2387,0.2395,0.2395,0.2396,0.2406,0.2395,0.2395,0.2395,0.2398,0.2398,0.2398,0,0,0,0,0,0,0.2255,0.2265,0.2344,0.2309,0.2319,0.2348,0.2367,0.2371,0.2385,0.239,0.239,0.2398,0.2395,0.2395,0.24,0.2406,0.2395,0.2396,0.2399,0.2398,0.2398,0.2427,0,0,0,0,0,0,0.2252,0.2264,0.2277,0.2309,0.2321,0.2379,0.2368,0.2372,0.2394,0.2394,0.2399,0.2399,0.2394,0.24,0.2401,0.2406,0.2396,0.2399,0.2398,0.2398,0.2426,0.2428,0.2429,0,0,0,0,0,0.2248,0.2267,0.2278,0.2288,0.2339,0.238,0.2387,0.2403,0.2394,0.2411,0.2403,0.2399,0.2398,0.24,0.2401,0.2407,0.2399,0.2399,0.2398,0.2425,0.2427,0.2429,0,0,0,0,0,0,0.2222,0.2271,0.2283,0.2316,0.2352,0.2383,0.2398,0.2408,0.2416,0.2408,0.2404,0.2404,0.241,0.2402,0.2405,0.2404,0.2395,0.2395,0.2416,0.2417,0.2419,0.2424,0.2396,0,0,0,0,0,0.2225,0.2253,0.2298,0.2325,0.2343,0.2371,0.2389,0.2401,0.2414,0.2418,0.2419,0.2411,0.2409,0.2409,0.2408,0.2413,0.2438,0.2413,0.2415,0.2416,0.2419,0.2465,0.2472,0.2397,0.2397,0.2397,0,0,0.2221,0.2253,0.2268,0.2322,0.2346,0.2368,0.238,0.2411,0.2419,0.2416,0.2419,0.2421,0.2412,0.2416,0.2417,0.2411,0.2453,0.2416,0.2417,0.242,0.2466,0.2473,0.248,0.2397,0.2397,0.2397,0,0,0.2224,0.2258,0.2279,0.231,0.2355,0.2372,0.2383,0.2417,0.2425,0.2436,0.2429,0.2438,0.2433,0.2434,0.243,0.2439,0.2462,0.2432,0.2444,0.2489,0.2496,0.2503,0.2562,0.2574,0.243,0.243,0.243,0,0.2214,0.2248,0.2292,0.2317,0.2336,0.2372,0.2388,0.2405,0.2432,0.2443,0.2437,0.2447,0.2441,0.2451,0.2448,0.2444,0.2479,0.2441,0.2494,0.2501,0.2507,0.2566,0.2578,0.2432,0.2432,0.2432,0.2431,0,0.2231,0.2256,0.2271,0.231,0.2338,0.2361,0.2393,0.2416,0.2424,0.2441,0.2463,0.2464,0.2476,0.247,0.2459,0.2494,0.251,0.2496,0.2496,0.2517,0.2577,0.259,0.2434,0.2433,0.2433,0.2433,0,0,0.2205,0.2268,0.227,0.2282,0.2334,0.2354,0.238,0.2416,0.2437,0.2457,0.2487,0.2482,0.2503,0.25,0.25,0.2526,0.2601,0.2529,0.253,0.2599,0.2722,0.276,0.2777,0.2604,0.2606,0.2608,0.2754,0,0.2199,0.223,0.2267,0.2285,0.2301,0.2346,0.2365,0.2403,0.244,0.2479,0.2499,0.2525,0.2509,0.2526,0.2552,0.2594,0.2633,0.2564,0.2681,0.2684,0.2725,0.2792,0.2783,0.2915,0.2766,0.2768,0.277,0,0.2193,0.2216,0.2233,0.2271,0.2283,0.2295,0.2347,0.2376,0.2447,0.2482,0.2532,0.2562,0.2615,0.2591,0.269,0.2652,0.2689,0.2714,0.2721,0.2753,0.2745,0.2864,0.2943,0.2934,0.2789,0.2788,0.2786,0,0.2141,0.2184,0.2191,0.2206,0.2259,0.2272,0.2302,0.2371,0.2416,0.2502,0.256,0.2617,0.2675,0.2721,0.2793,0.275,0.291,0.2859,0.2929,0.2933,0.2946,0.2948,0.3038,0.2928,0.2927,0.2927,0.2927,0,0.2113,0.2111,0.2165,0.2166,0.2177,0.2233,0.2266,0.2318,0.2414,0.248,0.2562,0.2643,0.2712,0.2814,0.284,0.2956,0.2962,0.2959,0.2981,0.2957,0.2957,0.2964,0.2932,0.2932,0.2931,0.293,0.2929,0,0.2044,0.2082,0.2088,0.2137,0.2151,0.2159,0.2243,0.2281,0.239,0.2492,0.2531,0.2694,0.2843,0.2926,0.3034,0.3043,0.3073,0.3152,0.3132,0.3148,0.317,0.3139,0.305,0.2961,0.3248,0.325,0.3251,0,0.2006,0.2007,0.205,0.2059,0.2076,0.2109,0.2138,0.2246,0.2312,0.2523,0.2575,0.2772,0.291,0.3123,0.3194,0.3299,0.317,0.3318,0.3216,0.3202,0.3184,0.2969,0.2882,0.3254,0.3256,0.3257,0.3258,0,0.1937,0.1954,0.1964,0.1989,0.2012,0.2046,0.2108,0.2161,0.2312,0.2434,0.2619,0.2758,0.3021,0.3168,0.3335,0.3371,0.3205,0.3345,0.3336,0.3212,0.2978,0.2894,0.3134,0.3269,0.3268,0.3267,0.3267,0.3266,0.1879,0.1876,0.1905,0.1923,0.1947,0.1984,0.1999,0.2105,0.2221,0.2403,0.2573,0.2778,0.309,0.3346,0.336,0.3448,0.3293,0.3403,0.3377,0.3165,0.3038,0.3315,0.3462,0.3462,0.3462,0.3462,0.3462,0,0.183,0.1841,0.1845,0.1869,0.1868,0.1912,0.1978,0.2005,0.2118,0.2331,0.2501,0.2872,0.3109,0.3315,0.356,0.3518,0.3272,0.345,0.3163,0.308,0.338,0.3344,0.3467,0.3467,0.3467,0.3467,0.3467,0.3467,0.1811,0.1805,0.1816,0.1799,0.1808,0.1801,0.1828,0.1891,0.2018,0.2252,0.2476,0.2686,0.315,0.3541,0.3649,0.3567,0.3301,0.319,0.3092,0.3376,0.3368,0.336,0.3321,0.3436,0.3436,0.2677,0.2673,0.2669]},{"header":{"parameterUnit":"m.s-1","parameterCategory":2,"la1":30.2991,"la2":30.254,"lo1":-89.0895,"lo2":-89.0444,"dy":0.0017,"dx":0.0017,"nx":28,"ny":28,"refTime":"2024-05-08T03:00:00:Z","depth":"0","parameterNumber":3,"parameterNumberName":"V-component_of_CURRENTS"},"data":[0,0,0,0,0,0,0,0,0,0,0,0,0,0,0,0,0,0,0,0,0,0,0,0,0,0,0,0,0,0,0,0,0,0,0,0,0,0,0,0,0,0,0,0,0,0,0,0,0,0,0,0,0,0,0,0,0,0,0.0095,0.0095,0,0.0031,0.003,0.0029,-0.0024,-0.0024,-0.0025,-0.0025,-0.0162,-0.0165,-0.0168,0,0,0,0,0,0,0,0,0,0,0,0,0,0.0135,0.0135,0.0095,0.0094,0.0094,0.0031,0.003,0.0029,-0.0024,-0.0024,-0.0025,-0.0025,-0.0161,-0.0164,-0.0168,0,0,0,0,0,0,0,0,0,0,0,0,0,0.0098,0.0135,0.0095,0.0061,0.0057,0.0031,0.003,0.0028,-0.0023,-0.0024,-0.0025,-0.0025,-0.0159,-0.0164,-0.0169,-0.0184,0,0,-0.0183,-0.0186,0,0,0,0,0,0,0,0,0.01,0.0097,0.0067,0.0063,0.0059,0.0012,-0.0006,-0.0046,-0.0023,0.0006,-0.0025,-0.0026,-0.0109,-0.0118,-0.0129,-0.0191,-0.0197,-0.0184,-0.0187,-0.0189,-0.019,0,0,0,0,0,0,0,0.0103,0.0099,0.0069,0.0066,0.0061,0.0035,0.003,-0.0014,-0.0049,0.0004,-0.0,-0.0006,-0.0112,-0.0124,-0.0133,-0.0199,-0.0184,-0.0188,-0.0191,-0.0193,-0.0289,-0.0289,0,0,0,0,0,0,0.0116,0.0102,0.0071,0.0067,0.0079,0.0035,0.0029,0.0027,-0.0047,-0.0058,-0.0005,-0.0008,-0.0116,-0.0127,-0.0138,-0.0168,-0.0189,-0.0193,-0.0196,-0.029,-0.0289,-0.0289,0,0,0,0,0,0,0.0117,0.0114,0.0073,0.0083,0.0076,0.0036,0.0034,0.0026,0.0012,-0.0053,-0.0065,-0.0011,-0.0117,-0.0131,-0.018,-0.0174,-0.0195,-0.02,-0.029,-0.0289,-0.0289,-0.0224,0,0,0,0,0,0,0.0118,0.0115,0.0119,0.0084,0.0076,0.0065,0.0034,0.0025,0.001,0.0006,-0.0062,-0.0075,-0.0118,-0.0172,-0.0185,-0.0181,-0.0204,-0.029,-0.029,-0.0289,-0.0227,-0.0222,-0.0217,0,0,0,0,0,0.012,0.0131,0.012,0.0116,0.0083,0.0066,0.006,0.0027,0.0011,0.0011,-0.0041,-0.0073,-0.0177,-0.0176,-0.0191,-0.0188,-0.0291,-0.029,-0.0289,-0.0229,-0.0223,-0.0217,0,0,0,0,0,0,0.0151,0.0126,0.0113,0.0116,0.0095,0.0057,0.0056,0.0033,-0.0006,-0.0013,-0.0076,-0.0093,-0.013,-0.0167,-0.0165,-0.0213,-0.0236,-0.0238,-0.0185,-0.018,-0.0175,-0.0151,-0.0208,0,0,0,0,0,0.0161,0.0163,0.0133,0.0137,0.013,0.0094,0.0083,0.0062,0.0024,0.0007,-0.0041,-0.0092,-0.0137,-0.0165,-0.0207,-0.0238,-0.0266,-0.0243,-0.0239,-0.0234,-0.0224,-0.0267,-0.0265,-0.0286,-0.0286,-0.0286,0,0,0.0174,0.0161,0.0162,0.0144,0.0125,0.012,0.0086,0.0076,0.0068,-0.0003,-0.003,-0.0078,-0.0141,-0.0174,-0.0193,-0.0207,-0.024,-0.0233,-0.0229,-0.0221,-0.0266,-0.0264,-0.0263,-0.0286,-0.0286,-0.0286,0,0,0.0205,0.0191,0.0204,0.019,0.017,0.0146,0.0146,0.0111,0.0092,0.0061,0.0009,-0.0036,-0.0101,-0.0145,-0.0177,-0.0171,-0.0211,-0.018,-0.0142,-0.0184,-0.0183,-0.0182,-0.0202,-0.0203,-0.018,-0.018,-0.018,0,0.0222,0.0232,0.0205,0.0212,0.0206,0.0161,0.017,0.0146,0.0098,0.0084,0.0062,-0.0031,-0.0087,-0.0132,-0.013,-0.0161,-0.0181,-0.0159,-0.0177,-0.0177,-0.0177,-0.0198,-0.0201,-0.0177,-0.0177,-0.0178,-0.0178,0,0.0261,0.0266,0.0273,0.0265,0.0255,0.0257,0.022,0.0203,0.0173,0.0144,0.0101,0.0026,-0.0028,-0.0052,-0.0093,-0.012,-0.0131,-0.0164,-0.0189,-0.0171,-0.0194,-0.0198,-0.0172,-0.0174,-0.0175,-0.0175,0,0,0.0304,0.0302,0.0303,0.0311,0.0284,0.0282,0.0267,0.0244,0.0241,0.0187,0.0178,0.0093,0.0058,0.0021,-0.0037,-0.0076,-0.0099,-0.0112,-0.0116,-0.0125,-0.0171,-0.0177,-0.0182,-0.0133,-0.0134,-0.0134,-0.0182,0,0.0342,0.0372,0.0356,0.0376,0.0387,0.0345,0.0338,0.0309,0.0277,0.0257,0.018,0.0149,0.0084,0.0063,0.0012,-0.007,-0.0107,-0.0081,-0.0192,-0.0195,-0.0199,-0.0187,-0.0162,-0.0202,-0.0185,-0.0186,-0.0187,0,0.0384,0.0399,0.043,0.0435,0.0436,0.0436,0.042,0.041,0.0364,0.0345,0.0296,0.0241,0.0172,0.0119,-0.0009,0.0013,-0.0067,-0.0132,-0.0136,-0.0166,-0.0208,-0.0221,-0.021,-0.0365,-0.0193,-0.0192,-0.0192,0,0.0428,0.0449,0.0477,0.0478,0.0474,0.0476,0.0467,0.0434,0.0446,0.0403,0.0416,0.0313,0.0281,0.016,0.0025,0.0008,-0.0103,-0.0152,-0.0231,-0.0232,-0.0245,-0.0246,-0.0392,-0.0235,-0.0235,-0.0235,-0.0235,0,0.0472,0.0494,0.0501,0.0516,0.0551,0.0526,0.0559,0.0534,0.0529,0.0568,0.0469,0.0483,0.0292,0.0204,0.0063,-0.0083,-0.008,-0.0214,-0.0246,-0.022,-0.0219,-0.0382,-0.0497,-0.0236,-0.0236,-0.0236,-0.0235,0,0.0509,0.0514,0.0551,0.0564,0.0572,0.0594,0.063,0.0658,0.0645,0.0695,0.0692,0.0611,0.0501,0.0314,0.0124,-0.0017,-0.0271,-0.0222,-0.0165,-0.019,-0.0421,-0.0532,-0.0722,-0.0827,-0.0324,-0.0324,-0.0325,0,0.0529,0.0552,0.0592,0.0622,0.0629,0.0669,0.0702,0.0709,0.0761,0.079,0.0828,0.0738,0.0713,0.0429,0.0151,-0.0095,-0.0274,-0.0243,-0.0286,-0.0423,-0.0571,-0.0646,-0.0726,-0.0274,-0.0274,-0.0274,-0.0274,0,0.057,0.0582,0.0615,0.0681,0.0725,0.0795,0.0853,0.0921,0.0955,0.1017,0.1086,0.1068,0.0795,0.0563,0.0203,0.0007,-0.0375,-0.025,-0.0417,-0.0562,-0.0629,-0.0747,-0.0242,-0.0273,-0.0273,-0.0273,-0.0273,-0.0273,0.0599,0.0637,0.0686,0.0751,0.0815,0.0926,0.1012,0.1103,0.1225,0.1357,0.1306,0.1348,0.0972,0.0485,0.017,-0.035,-0.0392,-0.0489,-0.0615,-0.0677,-0.0781,-0.0262,-0.0318,-0.0318,-0.0318,-0.0318,-0.0319,0,0.0653,0.0697,0.0755,0.0853,0.095,0.0971,0.112,0.1235,0.1418,0.1543,0.1625,0.1523,0.1021,0.0506,-0.0197,-0.0602,-0.0787,-0.0836,-0.0945,-0.1016,-0.0562,-0.0561,-0.0641,-0.0641,-0.0641,-0.0641,-0.064,-0.064,0.0686,0.0762,0.08,0.0964,0.104,0.12,0.1306,0.1473,0.1609,0.1837,0.1932,0.1964,0.1648,0.0243,-0.0672,-0.0936,-0.1263,-0.133,-0.1508,-0.1196,-0.1173,-0.1151,-0.1175,-0.1382,-0.1383,-0.1887,-0.1892,-0.1896]}],[{"header":{"parameterUnit":"m.s-1","parameterCategory":2,"la1":30.2991,"la2":30.254,"lo1":-89.0895,"lo2":-89.0444,"dy":0.0017,"dx":0.0017,"nx":28,"ny":28,"refTime":"2024-05-08T03:00:00:Z","depth":"2","parameterNumber":2,"parameterNumberName":"U-component_of_CURRENTS"},"data":[0,0,0,0,0,0,0,0,0,0,0,0,0,0,0,0,0,0,0,0,0,0,0,0,0,0,0,0,0,0,0,0,0,0,0,0,0,0,0,0,0,0,0,0,0,0,0,0,0,0,0,0,0,0,0,0,0,0,0.2292,0.2293,0,0.2351,0.2351,0.2352,0.2359,0.2359,0.2359,0.2358,0.2363,0.2364,0.2364,0,0,0,0,0,0,0,0,0,0,0,0,0,0.2178,0.218,0.2292,0.2293,0.2294,0.2351,0.2351,0.2352,0.2359,0.2359,0.2359,0.2358,0.2363,0.2364,0.2364,0,0,0,0,0,0,0,0,0,0,0,0,0,0.2228,0.218,0.2292,0.2308,0.231,0.2351,0.2351,0.2352,0.2359,0.2359,0.2358,0.2358,0.2363,0.2363,0.2364,0.2374,0,0,0.2366,0.2366,0,0,0,0,0,0,0,0,0.2225,0.2231,0.2304,0.2307,0.2309,0.2351,0.2313,0.2358,0.2359,0.2337,0.2358,0.2358,0.2357,0.2358,0.2365,0.2374,0.2374,0.2366,0.2366,0.2366,0.2366,0,0,0,0,0,0,0,0.2221,0.2229,0.2312,0.2305,0.2309,0.2309,0.2315,0.2321,0.2344,0.2338,0.234,0.2353,0.2357,0.2365,0.2365,0.2375,0.2366,0.2366,0.2366,0.2367,0.2371,0.237,0,0,0,0,0,0,0.2223,0.2226,0.231,0.2314,0.2269,0.2312,0.2318,0.2335,0.2345,0.2348,0.2353,0.2353,0.2364,0.2364,0.2365,0.2377,0.2366,0.2367,0.2367,0.2371,0.237,0.237,0,0,0,0,0,0,0.222,0.223,0.2308,0.2274,0.2284,0.2314,0.2332,0.2336,0.2351,0.2357,0.2358,0.2365,0.2364,0.2364,0.2371,0.2377,0.2367,0.2367,0.2371,0.2371,0.237,0.24,0,0,0,0,0,0,0.2217,0.2229,0.2242,0.2274,0.2286,0.2344,0.2333,0.2338,0.2361,0.2361,0.2368,0.2368,0.2363,0.2371,0.2372,0.2378,0.2368,0.2371,0.2371,0.237,0.24,0.2401,0.2403,0,0,0,0,0,0.2212,0.2232,0.2242,0.2253,0.2303,0.2346,0.2352,0.2369,0.2362,0.2378,0.2371,0.2368,0.2369,0.2372,0.2373,0.2379,0.2371,0.2371,0.237,0.2399,0.2401,0.2403,0,0,0,0,0,0,0.2187,0.2236,0.2247,0.228,0.2317,0.2349,0.2365,0.2375,0.2384,0.2378,0.2374,0.2374,0.238,0.2373,0.2376,0.2375,0.2366,0.2366,0.2388,0.2389,0.2391,0.2396,0.2368,0,0,0,0,0,0.219,0.2218,0.2263,0.229,0.2309,0.2337,0.2356,0.237,0.2384,0.2388,0.2389,0.2381,0.2379,0.238,0.2379,0.2385,0.2408,0.2385,0.2386,0.2388,0.2391,0.2435,0.2442,0.2369,0.2369,0.2369,0,0,0.2187,0.2219,0.2234,0.2287,0.2312,0.2333,0.2347,0.238,0.2388,0.2386,0.2388,0.2392,0.2382,0.2386,0.2387,0.2382,0.2423,0.2387,0.2389,0.2391,0.2436,0.2443,0.245,0.2368,0.2369,0.2369,0,0,0.2191,0.2225,0.2246,0.2276,0.2323,0.234,0.2352,0.2387,0.2395,0.2407,0.2399,0.2409,0.2404,0.2404,0.24,0.2408,0.2431,0.2402,0.2414,0.2458,0.2465,0.2471,0.2527,0.2538,0.24,0.24,0.24,0,0.2182,0.2215,0.2259,0.2283,0.2302,0.234,0.2356,0.2373,0.2401,0.2413,0.2407,0.2417,0.2411,0.2421,0.2418,0.2414,0.2447,0.2412,0.2463,0.2469,0.2475,0.2531,0.2543,0.2402,0.2402,0.2401,0.2401,0,0.22,0.2223,0.2238,0.2275,0.2304,0.2328,0.2359,0.2382,0.2392,0.2409,0.2431,0.2433,0.2445,0.2438,0.2428,0.2463,0.2477,0.2465,0.2465,0.2485,0.2542,0.2554,0.2404,0.2403,0.2403,0.2403,0,0,0.2176,0.2236,0.2237,0.2249,0.23,0.232,0.2344,0.2381,0.2402,0.2423,0.2452,0.2448,0.2471,0.2468,0.2469,0.2494,0.2568,0.2497,0.2499,0.2565,0.2684,0.2712,0.2728,0.2572,0.2573,0.2575,0.2713,0,0.2169,0.2199,0.2235,0.2251,0.2265,0.2311,0.2328,0.2367,0.2404,0.2443,0.2464,0.2491,0.2476,0.2495,0.252,0.256,0.2598,0.2532,0.2643,0.2647,0.2679,0.2742,0.2523,0.2629,0.2725,0.2727,0.2728,0,0.2163,0.2185,0.22,0.2237,0.2248,0.2261,0.2312,0.2341,0.2411,0.2447,0.2497,0.2528,0.258,0.2558,0.2653,0.2618,0.2653,0.2677,0.2683,0.2705,0.2697,0.2619,0.2647,0.2749,0.2747,0.2746,0.2744,0,0.2112,0.2153,0.216,0.2174,0.2225,0.2239,0.2268,0.2337,0.2381,0.2467,0.2525,0.2581,0.2639,0.2683,0.2752,0.2712,0.2864,0.2816,0.2875,0.2878,0.2711,0.2696,0.2882,0.2881,0.2881,0.2881,0.288,0,0.2084,0.2082,0.2135,0.2136,0.2148,0.2202,0.2236,0.2287,0.2382,0.2446,0.2528,0.2605,0.2675,0.2772,0.2797,0.2903,0.2914,0.2902,0.2922,0.2716,0.2702,0.2807,0.2796,0.2886,0.2885,0.2884,0.2883,0,0.2016,0.2054,0.206,0.2108,0.2122,0.2132,0.2216,0.2253,0.236,0.2458,0.2497,0.2655,0.2797,0.2878,0.2981,0.2986,0.3058,0.3084,0.2855,0.2846,0.3027,0.3016,0.3162,0.3164,0.3166,0.3167,0.3169,0,0.198,0.1981,0.2023,0.2033,0.205,0.2084,0.2113,0.222,0.2284,0.2487,0.2536,0.2725,0.2852,0.3051,0.3089,0.3178,0.3164,0.3012,0.2885,0.3054,0.3059,0.3045,0.3032,0.2675,0.2672,0.267,0.2668,0,0.1911,0.1929,0.194,0.1965,0.1988,0.2023,0.2084,0.2136,0.2283,0.2396,0.2572,0.2699,0.292,0.2947,0.3087,0.3082,0.2978,0.2972,0.3214,0.2651,0.261,0.261,0.261,0.2647,0.265,0.2651,0.2652,0.2653,0.1856,0.1853,0.1882,0.1901,0.1925,0.1963,0.1978,0.2078,0.2186,0.2336,0.2498,0.2624,0.2738,0.2862,0.2828,0.28,0.2988,0.2837,0.2837,0.2841,0.2772,0.2739,0.2788,0.2791,0.2793,0.2795,0.2797,0,0.1807,0.182,0.1824,0.1849,0.1848,0.1894,0.1957,0.1971,0.2073,0.2233,0.2368,0.2292,0.239,0.2481,0.2441,0.2499,0.2381,0.2375,0.2189,0.2216,0.2239,0.213,0.198,0.1977,0.1974,0.1971,0,0,0.1789,0.1783,0.1793,0.1778,0.1791,0.1784,0.1809,0.1843,0.1933,0.1988,0.2046,0.2267,0.2441,0.2161,0.2174,0.207,0.2096,0.1985,0.2658,0.2468,0.2485,0.2551,0.2424,0,0,0,0,0]},{"header":{"parameterUnit":"m.s-1","parameterCategory":2,"la1":30.2991,"la2":30.254,"lo1":-89.0895,"lo2":-89.0444,"dy":0.0017,"dx":0.0017,"nx":28,"ny":28,"refTime":"2024-05-08T03:00:00:Z","depth":"2","parameterNumber":3,"parameterNumberName":"V-component_of_CURRENTS"},"data":[0,0,0,0,0,0,0,0,0,0,0,0,0,0,0,0,0,0,0,0,0,0,0,0,0,0,0,0,0,0,0,0,0,0,0,0,0,0,0,0,0,0,0,0,0,0,0,0,0,0,0,0,0,0,0,0,0,0,0.002,0.002,0,-0.0042,-0.0043,-0.0043,-0.0094,-0.0094,-0.0094,-0.0095,-0.0229,-0.0232,-0.0235,0,0,0,0,0,0,0,0,0,0,0,0,0,0.0057,0.0056,0.002,0.002,0.0019,-0.0042,-0.0043,-0.0044,-0.0093,-0.0094,-0.0094,-0.0095,-0.0228,-0.0232,-0.0236,0,0,0,0,0,0,0,0,0,0,0,0,0,0.0021,0.0056,0.002,-0.0013,-0.0016,-0.0042,-0.0043,-0.0044,-0.0093,-0.0094,-0.0095,-0.0095,-0.0227,-0.0231,-0.0236,-0.0253,0,0,-0.0251,-0.0253,0,0,0,0,0,0,0,0,0.0024,0.002,-0.0007,-0.001,-0.0014,-0.006,-0.0079,-0.0117,-0.0093,-0.0065,-0.0095,-0.0095,-0.0178,-0.0187,-0.0198,-0.0259,-0.0265,-0.0251,-0.0254,-0.0256,-0.0258,0,0,0,0,0,0,0,0.0026,0.0022,-0.0005,-0.0008,-0.0012,-0.0038,-0.0043,-0.0087,-0.0119,-0.0068,-0.0071,-0.0076,-0.0181,-0.0193,-0.0201,-0.0267,-0.0251,-0.0255,-0.0258,-0.026,-0.0358,-0.0358,0,0,0,0,0,0,0.0039,0.0025,-0.0003,-0.0007,0.0005,-0.0037,-0.0044,-0.0045,-0.0118,-0.0128,-0.0076,-0.0078,-0.0184,-0.0196,-0.0206,-0.0236,-0.0256,-0.0261,-0.0263,-0.0358,-0.0358,-0.0358,0,0,0,0,0,0,0.004,0.0037,-0.0001,0.0008,0.0001,-0.0037,-0.0039,-0.0046,-0.0058,-0.0123,-0.0135,-0.008,-0.0185,-0.02,-0.0248,-0.0242,-0.0263,-0.0267,-0.0359,-0.0358,-0.0358,-0.0293,0,0,0,0,0,0,0.0041,0.0038,0.0042,0.0009,0.0001,-0.0008,-0.0038,-0.0047,-0.006,-0.0064,-0.0131,-0.0144,-0.0187,-0.024,-0.0252,-0.0249,-0.0271,-0.0359,-0.0358,-0.0358,-0.0296,-0.0291,-0.0287,0,0,0,0,0,0.0043,0.0055,0.0043,0.004,0.0009,-0.0008,-0.0014,-0.0044,-0.0059,-0.0059,-0.011,-0.0142,-0.0245,-0.0244,-0.0258,-0.0256,-0.0359,-0.0359,-0.0358,-0.0298,-0.0292,-0.0287,0,0,0,0,0,0,0.0073,0.005,0.0036,0.0041,0.0021,-0.0016,-0.0016,-0.0038,-0.0076,-0.0083,-0.0145,-0.0162,-0.0199,-0.0236,-0.0233,-0.0282,-0.0305,-0.0307,-0.0254,-0.0249,-0.0244,-0.0221,-0.0275,0,0,0,0,0,0.0083,0.0086,0.0057,0.0062,0.0055,0.002,0.001,-0.001,-0.0047,-0.0063,-0.0111,-0.0162,-0.0206,-0.0234,-0.0276,-0.0308,-0.0336,-0.0314,-0.0309,-0.0305,-0.0295,-0.0338,-0.0336,-0.0356,-0.0356,-0.0356,0,0,0.0096,0.0085,0.0086,0.0068,0.0051,0.0046,0.0013,0.0004,-0.0004,-0.0074,-0.01,-0.0147,-0.0211,-0.0244,-0.0264,-0.0277,-0.0312,-0.0304,-0.03,-0.0292,-0.0337,-0.0336,-0.0334,-0.0355,-0.0355,-0.0355,0,0,0.0128,0.0115,0.0127,0.0114,0.0095,0.0071,0.0072,0.0038,0.002,-0.0011,-0.0062,-0.0107,-0.0172,-0.0217,-0.0248,-0.0244,-0.0284,-0.0253,-0.0216,-0.0258,-0.0256,-0.0256,-0.0276,-0.0278,-0.0253,-0.0253,-0.0253,0,0.0145,0.0154,0.0129,0.0136,0.0129,0.0086,0.0095,0.0071,0.0025,0.0011,-0.001,-0.0103,-0.0159,-0.0205,-0.0203,-0.0234,-0.0254,-0.0232,-0.0251,-0.0251,-0.0251,-0.0273,-0.0276,-0.025,-0.025,-0.025,-0.0251,0,0.0182,0.0187,0.0195,0.0186,0.0176,0.0178,0.0142,0.0126,0.0097,0.0069,0.0025,-0.0048,-0.0103,-0.0127,-0.0167,-0.0194,-0.0206,-0.0237,-0.0262,-0.0245,-0.0269,-0.0273,-0.0245,-0.0246,-0.0247,-0.0248,0,0,0.0226,0.0223,0.0224,0.0231,0.0205,0.0202,0.0187,0.0163,0.016,0.0107,0.0097,0.0013,-0.002,-0.0057,-0.0113,-0.0152,-0.0175,-0.0187,-0.0191,-0.02,-0.0248,-0.0256,-0.0261,-0.0209,-0.0209,-0.021,-0.0259,0,0.0263,0.0291,0.0274,0.0293,0.0303,0.0262,0.0254,0.0225,0.0194,0.0173,0.0098,0.0067,0.0005,-0.0015,-0.0066,-0.0148,-0.0184,-0.0157,-0.0269,-0.0271,-0.0276,-0.0266,-0.0255,-0.0298,-0.0264,-0.0264,-0.0265,0,0.0302,0.0317,0.0346,0.0349,0.035,0.035,0.0333,0.0323,0.0276,0.0258,0.021,0.0156,0.0088,0.0038,-0.0089,-0.0067,-0.0145,-0.021,-0.0214,-0.0246,-0.0287,-0.0313,-0.0307,-0.0272,-0.0271,-0.0271,-0.027,0,0.0346,0.0365,0.0392,0.0392,0.0387,0.0389,0.038,0.0347,0.0358,0.0316,0.0327,0.0226,0.0194,0.0075,-0.0058,-0.0073,-0.0187,-0.0233,-0.0312,-0.0313,-0.0338,-0.034,-0.0316,-0.0316,-0.0315,-0.0315,-0.0315,0,0.0388,0.0409,0.0416,0.043,0.0463,0.0439,0.0471,0.0446,0.044,0.0475,0.038,0.039,0.0204,0.0116,-0.0023,-0.0167,-0.0165,-0.0297,-0.0328,-0.0314,-0.0313,-0.0322,-0.0322,-0.0317,-0.0317,-0.0316,-0.0316,0,0.0425,0.0429,0.0464,0.0477,0.0485,0.0507,0.0541,0.0567,0.0553,0.0599,0.0596,0.0513,0.0402,0.022,0.0031,-0.0106,-0.0257,-0.0309,-0.0266,-0.0292,-0.0364,-0.036,-0.041,-0.0411,-0.0411,-0.0412,-0.0412,0,0.0444,0.0466,0.0505,0.0535,0.0542,0.0581,0.0613,0.0618,0.0666,0.0688,0.0722,0.0631,0.0596,0.0315,0.0043,-0.02,-0.0234,-0.0348,-0.0389,-0.0349,-0.0375,-0.037,-0.0366,-0.0393,-0.0394,-0.0394,-0.0394,0,0.0483,0.0496,0.0528,0.0592,0.0635,0.0703,0.0758,0.0819,0.0848,0.0901,0.0956,0.0929,0.0658,0.0402,0.0053,-0.012,-0.0315,-0.0359,-0.0336,-0.0367,-0.0337,-0.0361,-0.0357,-0.0396,-0.0396,-0.0396,-0.0395,-0.0395,0.0512,0.0548,0.0595,0.0658,0.0721,0.0826,0.0904,0.0985,0.1092,0.1171,0.1129,0.1096,0.0777,0.0333,0.0023,-0.0315,-0.0306,-0.0429,-0.0427,-0.0425,-0.041,-0.0383,-0.0446,-0.0446,-0.0446,-0.0446,-0.0447,0,0.0558,0.0603,0.066,0.0753,0.0841,0.087,0.1005,0.1082,0.1236,0.1293,0.1332,0.1042,0.0748,0.0395,-0.0106,-0.0401,-0.0434,-0.049,-0.047,-0.0467,-0.0464,-0.045,-0.0498,-0.0498,-0.0499,-0.05,0,0,0.0586,0.0655,0.069,0.0843,0.0922,0.1063,0.1158,0.1254,0.1327,0.1391,0.1374,0.1284,0.0864,0.0496,0.008,-0.0202,-0.0261,-0.026,-0.019,-0.0113,-0.0106,-0.0404,-0.0376,0,0,0,0,0]}],[{"header":{"parameterUnit":"m.s-1","parameterCategory":2,"la1":30.2991,"la2":30.254,"lo1":-89.0895,"lo2":-89.0444,"dy":0.0017,"dx":0.0017,"nx":28,"ny":28,"refTime":"2024-05-08T03:00:00:Z","depth":"4","parameterNumber":2,"parameterNumberName":"U-component_of_CURRENTS"},"data":[0,0,0,0,0,0,0,0,0,0,0,0,0,0,0,0,0,0,0,0,0,0,0,0,0,0,0,0,0,0,0,0,0,0,0,0,0,0,0,0,0,0,0,0,0,0,0,0,0,0,0,0,0,0,0,0,0,0,0.1291,0.1292,0,0.1339,0.1339,0.134,0.1413,0.1414,0.1415,0.1417,0.1501,0.1502,0.1503,0,0,0,0,0,0,0,0,0,0,0,0,0,0.1236,0.1237,0.1291,0.1292,0.1292,0.1339,0.1339,0.134,0.1413,0.1414,0.1416,0.1417,0.1501,0.1502,0.1503,0,0,0,0,0,0,0,0,0,0,0,0,0,0.1271,0.1238,0.1291,0.1333,0.1337,0.1338,0.1339,0.134,0.1413,0.1414,0.1416,0.1418,0.15,0.1502,0.1504,0.1479,0,0,0.1509,0.151,0,0,0,0,0,0,0,0,0.1269,0.1273,0.1326,0.133,0.1335,0.137,0.1351,0.1388,0.1412,0.1386,0.1417,0.1419,0.1458,0.1464,0.147,0.1483,0.1487,0.1509,0.151,0.1511,0.1511,0,0,0,0,0,0,0,0.1267,0.1271,0.1312,0.1327,0.1332,0.134,0.1347,0.1358,0.1413,0.1388,0.1393,0.1395,0.1462,0.1469,0.1473,0.1488,0.1509,0.1511,0.1512,0.1512,0.1642,0.1644,0,0,0,0,0,0,0.1257,0.1269,0.131,0.1313,0.1304,0.1339,0.1348,0.1358,0.1413,0.1422,0.1394,0.1398,0.1465,0.1471,0.1476,0.1577,0.1511,0.1513,0.1514,0.1639,0.1642,0.1645,0,0,0,0,0,0,0.1256,0.1261,0.1308,0.129,0.1297,0.1338,0.135,0.1358,0.14,0.1416,0.1427,0.143,0.1466,0.1474,0.1531,0.1576,0.1513,0.1515,0.1636,0.164,0.1643,0.1696,0,0,0,0,0,0,0.1254,0.126,0.1273,0.129,0.1298,0.1336,0.1348,0.1358,0.1395,0.1403,0.145,0.1458,0.1468,0.1529,0.1533,0.1577,0.1516,0.1633,0.1638,0.1642,0.1692,0.1701,0.171,0,0,0,0,0,0.1252,0.1262,0.1274,0.1279,0.1312,0.1336,0.1342,0.1377,0.1396,0.142,0.1462,0.1458,0.1561,0.1531,0.1536,0.1582,0.1631,0.1637,0.1642,0.1687,0.1699,0.1709,0,0,0,0,0,0,0.1248,0.1271,0.1284,0.1302,0.1329,0.1349,0.1374,0.1391,0.144,0.1459,0.1477,0.1488,0.1559,0.1562,0.1529,0.1636,0.1599,0.1606,0.1633,0.1644,0.1653,0.1639,0.1518,0,0,0,0,0,0.1249,0.1266,0.1289,0.1307,0.1325,0.1353,0.137,0.1395,0.1431,0.1456,0.1494,0.1537,0.1577,0.1604,0.1638,0.1683,0.1688,0.1721,0.173,0.1737,0.1732,0.1777,0.1788,0.1662,0.1662,0.1662,0,0,0.1249,0.1266,0.1275,0.1308,0.1335,0.1369,0.1371,0.141,0.145,0.1455,0.1538,0.1568,0.1597,0.1662,0.1693,0.1674,0.1782,0.1744,0.175,0.1741,0.1783,0.1795,0.1806,0.1666,0.1665,0.1665,0,0,0.1253,0.1281,0.1298,0.1328,0.137,0.1393,0.1411,0.1457,0.1497,0.156,0.1585,0.1639,0.1702,0.1733,0.1752,0.1826,0.1828,0.1852,0.1886,0.193,0.1939,0.1948,0.1989,0.2001,0.1857,0.1857,0.1857,0,0.1253,0.1285,0.1307,0.1339,0.1373,0.1411,0.1449,0.1488,0.1551,0.1585,0.1602,0.1709,0.1733,0.1799,0.1835,0.1845,0.1871,0.1838,0.1939,0.1948,0.1956,0.1995,0.2007,0.186,0.186,0.1859,0.1859,0,0.1272,0.131,0.133,0.1387,0.1424,0.1467,0.152,0.1574,0.1627,0.1661,0.1752,0.179,0.1852,0.1876,0.1878,0.1956,0.1958,0.1943,0.1904,0.1971,0.2009,0.2021,0.1865,0.1863,0.1863,0.1862,0,0,0.124,0.1325,0.1337,0.1376,0.146,0.1488,0.1568,0.1638,0.1691,0.1764,0.1832,0.1905,0.1929,0.1952,0.1971,0.2006,0.2091,0.2005,0.2006,0.2032,0.2199,0.2084,0.2085,0.21,0.2102,0.2103,0.2209,0,0.1256,0.132,0.1365,0.1443,0.1485,0.1554,0.1619,0.1689,0.1758,0.1836,0.1885,0.1961,0.1958,0.2001,0.2038,0.2081,0.2123,0.2064,0.2141,0.2143,0.2021,0.2095,0.211,0.2217,0.222,0.2222,0.2223,0,0.1259,0.1308,0.1382,0.1477,0.1503,0.1559,0.1672,0.1734,0.1838,0.1895,0.1972,0.2016,0.2099,0.2079,0.2183,0.2153,0.2183,0.2203,0.2207,0.2081,0.2048,0.2134,0.2244,0.2243,0.2241,0.224,0.2239,0,0.1221,0.1318,0.1382,0.1418,0.1529,0.1583,0.165,0.1754,0.182,0.1939,0.2003,0.2092,0.2164,0.2211,0.2271,0.2242,0.2371,0.2334,0.2256,0.2249,0.2295,0.2284,0.2398,0.2398,0.2398,0.2398,0.2397,0,0.1211,0.1263,0.1373,0.1408,0.1486,0.1571,0.1663,0.174,0.186,0.1935,0.2033,0.2105,0.2204,0.2287,0.2309,0.2328,0.2412,0.2271,0.2269,0.2319,0.231,0.2305,0.2292,0.2402,0.2401,0.24,0.2399,0,0.1156,0.1231,0.1304,0.1427,0.1469,0.1525,0.1667,0.1726,0.1853,0.1958,0.2006,0.2155,0.226,0.2342,0.2436,0.2378,0.2403,0.2388,0.246,0.246,0.2241,0.2231,0.2298,0.2294,0.2292,0.2289,0.2287,0,0.1134,0.1167,0.1299,0.1343,0.1406,0.1502,0.1565,0.1706,0.1772,0.1968,0.2006,0.2168,0.2249,0.2294,0.2382,0.2428,0.2398,0.239,0.2279,0.2239,0.2232,0.2225,0.2219,0.2283,0.2282,0.2282,0.2281,0,0.1089,0.1144,0.1204,0.1291,0.1367,0.1439,0.1542,0.158,0.174,0.1874,0.1966,0.2033,0.2153,0.2223,0.2289,0.2307,0.2376,0.2361,0.2365,0.226,0.2222,0.2216,0.2213,0.2272,0.2273,0.2274,0.2274,0,0.1053,0.1077,0.1158,0.1227,0.1307,0.1348,0.1416,0.15,0.1584,0.179,0.182,0.1988,0.2131,0.2164,0.2221,0.224,0.2193,0.2099,0.2116,0.2127,0.2022,0.1946,0.1917,0,0,0,0,0,0.1008,0.1026,0.1088,0.1149,0.1222,0.1277,0.1388,0.1459,0.1608,0.1628,0.172,0.182,0.1916,0.2007,0.1994,0.215,0.2201,0.2124,0.21,0.222,0.223,0.2122,0,0,0,0,0,0,0.0974,0.1025,0.1056,0.107,0.1099,0.1171,0.1237,0.1343,0.1361,0.152,0.1585,0.1711,0.1835,0.1911,0.196,0.1988,0.1935,0.2233,0.2229,0.2213,0.2223,0.2232,0.2125,0,0,0,0,0]},{"header":{"parameterUnit":"m.s-1","parameterCategory":2,"la1":30.2991,"la2":30.254,"lo1":-89.0895,"lo2":-89.0444,"dy":0.0017,"dx":0.0017,"nx":28,"ny":28,"refTime":"2024-05-08T03:00:00:Z","depth":"4","parameterNumber":3,"parameterNumberName":"V-component_of_CURRENTS"},"data":[0,0,0,0,0,0,0,0,0,0,0,0,0,0,0,0,0,0,0,0,0,0,0,0,0,0,0,0,0,0,0,0,0,0,0,0,0,0,0,0,0,0,0,0,0,0,0,0,0,0,0,0,0,0,0,0,0,0,-0.0049,-0.0049,0,-0.0072,-0.0072,-0.0073,-0.0104,-0.0104,-0.0105,-0.0105,-0.0211,-0.0213,-0.0215,0,0,0,0,0,0,0,0,0,0,0,0,0,-0.0055,-0.0055,-0.0048,-0.0049,-0.0049,-0.0072,-0.0072,-0.0073,-0.0104,-0.0104,-0.0105,-0.0106,-0.021,-0.0213,-0.0216,0,0,0,0,0,0,0,0,0,0,0,0,0,-0.0064,-0.0055,-0.0048,-0.0067,-0.0069,-0.0072,-0.0073,-0.0073,-0.0104,-0.0105,-0.0105,-0.0106,-0.0209,-0.0213,-0.0216,-0.0224,0,0,-0.0227,-0.0229,0,0,0,0,0,0,0,0,-0.0063,-0.0063,-0.0064,-0.0066,-0.0068,-0.0085,-0.0114,-0.0127,-0.0104,-0.0091,-0.0105,-0.0106,-0.0176,-0.0182,-0.0184,-0.0229,-0.0234,-0.0227,-0.0229,-0.0231,-0.0232,0,0,0,0,0,0,0,-0.0062,-0.0063,-0.0058,-0.0064,-0.0066,-0.0083,-0.0084,-0.0116,-0.0131,-0.0092,-0.0094,-0.0096,-0.0177,-0.0181,-0.0187,-0.0235,-0.0227,-0.023,-0.0233,-0.0234,-0.0326,-0.0326,0,0,0,0,0,0,-0.0056,-0.0062,-0.0058,-0.0059,-0.0066,-0.0082,-0.0084,-0.0079,-0.0129,-0.0136,-0.0095,-0.0097,-0.0174,-0.0183,-0.0191,-0.0224,-0.0231,-0.0234,-0.0236,-0.0326,-0.0326,-0.0326,0,0,0,0,0,0,-0.0056,-0.0055,-0.0057,-0.0061,-0.0062,-0.0081,-0.0076,-0.008,-0.0088,-0.013,-0.014,-0.01,-0.0175,-0.0186,-0.0228,-0.0228,-0.0236,-0.0239,-0.0325,-0.0326,-0.0326,-0.0277,0,0,0,0,0,0,-0.0056,-0.0055,-0.005,-0.006,-0.0062,-0.0059,-0.0075,-0.0079,-0.0087,-0.009,-0.0138,-0.0148,-0.0177,-0.0222,-0.0231,-0.0233,-0.0242,-0.0325,-0.0326,-0.0326,-0.0278,-0.0276,-0.0274,0,0,0,0,0,-0.0056,-0.0042,-0.005,-0.005,-0.0055,-0.0059,-0.0061,-0.0077,-0.0087,-0.0088,-0.0125,-0.0146,-0.0232,-0.0225,-0.0236,-0.0239,-0.0325,-0.0325,-0.0326,-0.0279,-0.0276,-0.0274,0,0,0,0,0,0,-0.0043,-0.0044,-0.0053,-0.0041,-0.0051,-0.0064,-0.0062,-0.0075,-0.0102,-0.0108,-0.0152,-0.0164,-0.02,-0.0228,-0.0219,-0.0268,-0.0282,-0.0284,-0.0242,-0.024,-0.0238,-0.0218,-0.0245,0,0,0,0,0,-0.0037,-0.0028,-0.0038,-0.003,-0.0032,-0.0048,-0.0052,-0.0063,-0.0086,-0.0098,-0.0133,-0.0173,-0.0209,-0.0231,-0.0266,-0.0293,-0.0314,-0.0302,-0.03,-0.0297,-0.029,-0.0325,-0.0325,-0.0329,-0.0329,-0.0329,0,0,-0.0029,-0.0029,-0.0024,-0.0026,-0.0034,-0.0033,-0.0052,-0.0054,-0.0059,-0.0107,-0.0129,-0.0167,-0.0215,-0.0245,-0.0263,-0.027,-0.0308,-0.0298,-0.0296,-0.0289,-0.0326,-0.0325,-0.0325,-0.0329,-0.0329,-0.0329,0,0,-0.0009,-0.0009,0.0003,-0.0002,-0.0011,-0.002,-0.002,-0.0037,-0.0049,-0.0073,-0.0111,-0.0149,-0.02,-0.0234,-0.0258,-0.0265,-0.0293,-0.0277,-0.025,-0.0285,-0.0284,-0.0284,-0.0305,-0.0307,-0.0276,-0.0276,-0.0276,0,-0.0001,0.0013,0.0004,0.001,0.0011,-0.0013,-0.0004,-0.0019,-0.0049,-0.006,-0.0076,-0.015,-0.0194,-0.0231,-0.0234,-0.0259,-0.0277,-0.0254,-0.028,-0.0281,-0.0281,-0.0303,-0.0306,-0.0274,-0.0274,-0.0274,-0.0274,0,0.0023,0.0033,0.0041,0.0041,0.0039,0.0045,0.0025,0.0013,-0.0006,-0.0023,-0.0061,-0.0118,-0.016,-0.0183,-0.0211,-0.0239,-0.0249,-0.0271,-0.0282,-0.0278,-0.0301,-0.0305,-0.027,-0.0271,-0.0272,-0.0272,0,0,0.0043,0.0056,0.0058,0.0067,0.0058,0.0062,0.0052,0.004,0.004,-0.0002,-0.0009,-0.0078,-0.0103,-0.0132,-0.0177,-0.0209,-0.0234,-0.0236,-0.0239,-0.0246,-0.0297,-0.0293,-0.0297,-0.0258,-0.0258,-0.0259,-0.0308,0,0.0063,0.0089,0.0086,0.0107,0.012,0.01,0.0097,0.0081,0.0061,0.0047,-0.0012,-0.0036,-0.0085,-0.0101,-0.0144,-0.0211,-0.0243,-0.0217,-0.0309,-0.0312,-0.03,-0.0302,-0.026,-0.0312,-0.0313,-0.0313,-0.0314,0,0.0083,0.0101,0.0128,0.0148,0.0151,0.0157,0.0156,0.0151,0.0121,0.0109,0.0073,0.0032,-0.0026,-0.0063,-0.0172,-0.0151,-0.0216,-0.0269,-0.0273,-0.0287,-0.0315,-0.0321,-0.0321,-0.0321,-0.032,-0.032,-0.0319,0,0.0102,0.0129,0.0155,0.0161,0.0176,0.0182,0.0185,0.0169,0.0179,0.0153,0.0162,0.0082,0.0054,-0.0043,-0.0154,-0.0162,-0.0266,-0.0295,-0.0352,-0.0352,-0.0362,-0.0361,-0.0366,-0.0366,-0.0366,-0.0365,-0.0365,0,0.0122,0.0143,0.017,0.0185,0.0221,0.0215,0.0247,0.0237,0.0239,0.0265,0.0201,0.02,0.006,-0.0018,-0.0129,-0.0247,-0.0251,-0.0342,-0.0366,-0.034,-0.0337,-0.0364,-0.0363,-0.0367,-0.0367,-0.0367,-0.0366,0,0.0132,0.0148,0.0186,0.0217,0.0232,0.0255,0.0299,0.0322,0.0321,0.0353,0.0353,0.0288,0.019,0.0049,-0.0106,-0.0202,-0.0324,-0.0365,-0.031,-0.0331,-0.0392,-0.0389,-0.0433,-0.0433,-0.0433,-0.0433,-0.0433,0,0.014,0.0161,0.0215,0.0245,0.0262,0.0305,0.0337,0.0357,0.0392,0.0409,0.0428,0.0353,0.0292,0.0092,-0.0075,-0.0282,-0.0318,-0.0381,-0.0405,-0.0381,-0.04,-0.0396,-0.0392,-0.0434,-0.0434,-0.0434,-0.0434,0,0.0157,0.0175,0.0207,0.0271,0.0317,0.0377,0.0428,0.0461,0.0491,0.0503,0.0505,0.0402,0.0293,0.0111,-0.0047,-0.0202,-0.0343,-0.0385,-0.0386,-0.0408,-0.0383,-0.0401,-0.0396,-0.0435,-0.0435,-0.0435,-0.0435,0,0.0164,0.0188,0.0232,0.0285,0.0355,0.042,0.0452,0.0501,0.0536,0.0559,0.0558,0.0443,0.0375,0.0153,0.0005,-0.0145,-0.0194,-0.0254,-0.0262,-0.0264,-0.021,-0.0154,-0.0149,0,0,0,0,0,0.0159,0.018,0.0242,0.0299,0.0375,0.0412,0.0499,0.0528,0.0567,0.0584,0.0577,0.0481,0.0276,0.0184,0.0037,-0.0034,-0.0245,-0.0215,-0.0324,-0.044,-0.0439,-0.0406,0,0,0,0,0,0,0.0149,0.0195,0.0231,0.0307,0.0345,0.0429,0.0483,0.0516,0.0531,0.0553,0.0453,0.0424,0.0223,0.0355,0.0025,-0.0021,-0.0114,-0.0306,-0.0309,-0.044,-0.0439,-0.0438,-0.0405,0,0,0,0,0]}]]